星链-30454 (STARLINK-30454 )

导读

STARLINK-30454是美国SpaceX星链星座的低轨通信卫星,于2023年9月24日发射入轨,属于星链第二代卫星组网的组成部分。它依托星链先进的卫星技术,配备激光星间链路与相控阵天线,可支撑卫星间直接通信,为全球提供高速宽带互联网覆盖,尤其适配偏远地区、海洋等场景,是星链全球太空互联网布局的重要节点,推动低轨卫星通信网络能力持续升级。

Basic Information
目录编号:
57915
目录名称:
STARLINK-30454
国际标识:
2023-147C
轨道中心:
EARTH
卫星名称:
星链-30454
卫星全名:
星链-30454 (STARLINK-30454 )
卫星状态:
在轨 (已飞行1083 天)
发射日期:
2023-09-24 UTC
国别 :
美国 (US)
星等 :
--
This satellite is enrolled in the Space Conjunction Data Service (SCDS) and the current flight risk assessment level is: No High Risk
Orbit Information
数据来源 国际轨道数据 AOE轨道数据
星历时间 2026-09-11T14:42:14+0800
9小时前
查看轨道信息
2026-09-10T12:00:00+0800
1天前
查看轨道信息
半长轴 6861.214km 6861.193km
偏心率 0.0001457 0.0001429
轨道倾角 43.006° 43.006°
近地点辐角 265.602° 254.834°
升交点赤经 356.919° 3.207°
平近点角 94.466° 99.266°
近地点 482.077km 482.075km
远地点 484.077km 484.037km
周期 94.267分钟 94.267分钟
每日圈数 15.275707 15.275777
Detailed Information
固有亮度:
5
最大亮度:
0.3
卫星平台:
Starlink v2.0 mini
覆盖范围:
全球
运营商:
太空探索技术公司
运营商所在国:
美国
制造商(研发单位):
太空探索技术公司
制造商所在国:
美国
使用方式:
暂无
Satellite Introduction
星链(Starlink)计划是由太空探索技术公司(SpaceX)提出的一个巨型低轨卫星互联网星座项目,计划在2019年至2024年间在太空搭建由约1.2万颗卫星组成的“星链”网络,其中1584颗将部署在地球上空550千米处的近地轨道,并从2020年开始工作。该卫星仍在工作。
2D Orbit Map
3D Orbit Map
Orbit Altitude Analysis Chart
Orbit Inclination Analysis Chart
Orbit Comprehensive Analysis Chart
View Comprehensive Chart
Conjunction Data List
Event ID Objects TCA Miss Dist (km) Collision Risk Probability Collision Risk Index (CRI) Action
CDM_260910-005905-791506-438522
2026-09-10T
00:59:20+0000
1.223 km
极远距离
1.016483E-5 中风险 0.55
CDM_260913-010805-791506-711321
2026-09-13T
01:08:42+0000
1.390 km
极远距离
6.688274E-6 低风险 0.52
CDM_260913-024205-791506-711321
2026-09-13T
02:42:51+0000
2.260 km
极远距离
1.708237E-6 低风险 0.4
CDM_260910-023305-791506-438523
2026-09-10T
02:33:30+0000
2.252 km
极远距离
1.693829E-6 低风险 0.4
CDM_260910-174203-163005-791524
2026-09-10T
17:42:36+0000
2.830 km
极远距离
1.209465E-6 低风险 0.37
CDM_260904-121705-791506-887021
2026-09-04T
12:17:44+0000
2.904 km
极远距离
1.190449E-6 低风险 0.37
CDM_260914-073103-945105-791521
SWARM B (39451)
2026-09-14T
07:31:51+0000
2.396 km
极远距离
1.157798E-6 低风险 0.36
CDM_260910-100805-791506-726124
OBJECT P (67261)
2026-09-10T
10:08:03+0000
2.690 km
极远距离
1.078292E-6 低风险 0.36
Miss Distance Evolution Trend with All Objects
Collision Probability Evolution Trend with All Objects